Showing default

IHOPSAT-TD, 44859

Orbit data source: Space-Track

IHOPSAT-TD, 44859 is a payload satellite owned by Hera Systems (US) in LEO that was launched on Wed, 11 Dec 2019 UTC via a PSLV-QL launch vehicle from the Sirharikota (SRI). Payload-class satellites include a variety of spacecraft equipped with specific instruments for various scientific and technological missions. These include communications satellites like Starlink; space stations such as the ISS; scientific satellites like the Hubble; Earth observation satellites from companies like Planet Labs, Umbra, and HawkEye 360; GPS; miniature CubeSats for education and research; and military/defense satellites.

Loading next visibility...
Identifier
44859, 2019-089H
Orbit
LEO
Last TLE update
12 hours ago
Origin
Manufacturer
Hera Systems
Mission
Operational Commercial Imaging
Bus & Motor
CUBESAT 12U, Unknown motor
Mass
22 kg wet, 22 kg dry
Launch date (UTC)
2019-12-11 (6 years ago)
Launch vehicle
PSLV-QL
Launch site
Sirharikota (SRI)
Object type
Payload
Rocket body
Debris
Shape & HBR
Box, Unknown HBR
Radar Cross Section
0.080 m², Small (<0.1 m²)

Expand to show TLE details & history

TLE from 12 hours ago
0 IHOPSAT-TD
1 44859U 19089H   25185.84009603  .00002396  00000-0  15364-3 0  9990
2 44859  36.9689 327.8041 0006169 265.3139  94.6901 15.09035562305440
Epoch: 2025-07-04T20:09Z
TLE epoch observation values (Epoch: 2025-07-04T20:09:44.296Z)
Latitude
-0.00005°
Longitude
102.28274°
Altitude
538.618 km
Speed
7.595 km/s
True Right ascension
21h 51m 12s
True Declination
0° 00' 00"
Sunlit
Object was in full shadow at epoch
Visualization orbit readout
Latitude
0.16224°
Longitude
-80.90978°
Altitude
538.216 km
Speed
7.596 km/s
Apparent Right ascension
08h 56m 58s
Apparent Declination
-19° 20' 34"
Sunlit
Object is in daylight
Visualization observer readout
Local Sidereal Time
19:58:06
Azimuth
324.13° NNW
Elevation
-65.85°
Doppler factor
1
Orbital elements
Apogee altitude
546.333 km
Perigee altitude
537.795 km
Semi-major axis
6,920.201 km
Eccentricity
0.00062
Inclination
36.9689°
RAAN
327.8041°
Arg. of periapsis
265.3139°
True anomaly
Unknown
Mean anomaly
94.6901°
Eccentric anomaly
Unknown
Mean motion
3.77021 °/min
Orbital period
95.49 mins
BSTAR
0.00015364
Loading maneuver chart data...
Loading SW <> Apogee altitude chart data...
Loading historical data...
Loading historical data...
Loading historical data...
Loading historical data...
Loading historical data...
Loading historical data...
Loading historical data...

IHOPSAT-TD Visibility forecast

Observer location: undefined°, undefined°

Span
Click to sort rows by Start time (UTC) header in descending order
Start Az.
Max El. time (UTC)
Max El. Az.
Max El.
End time (UTC)
End Az.
6 mins2025-07-05 13:54:16.278Z219.95° SW2025-07-05 13:56:16.278Z173.59° S31.186°2025-07-05 14:00:16.278Z96.403° ESE
6 mins2025-07-05 15:34:16.278Z253.015° W2025-07-05 15:37:16.278Z157.595° S39.214°2025-07-05 15:40:16.278Z103.918° ESE
5 mins2025-07-05 17:15:16.278Z249.497° W2025-07-05 17:17:16.278Z198.905° SSW31.332°2025-07-05 17:20:16.278Z133.746° SE
|